FW8705 Weather Reports


time (UTC)temp
F
wind
direction
speed
knots
gust
knots
rain 1hr
in
rain 24hr
in
rain mn
in
humidity
%
barometer
mb
20260506184601 70 0 0.0 0.0 0.00 0.00 0.00 56 1005.3
20260506183055 71 0 0.0 0.0 0.00 0.00 0.00 54 1005.1
20260506181551 72 0 0.0 0.0 0.00 0.00 0.00 52 1005.1
20260506180056 73 0 0.0 3.5 0.00 0.00 0.00 51 1005.1
20260506174554 75 0 0.0 6.1 0.00 0.00 0.00 49 1005.1
20260506173113 76 0 0.9 5.2 0.00 0.00 0.00 49 1005.2
20260506171557 75 0 0.0 6.1 0.00 0.00 0.00 50 1005.0
20260506170057 75 0 0.0 4.3 0.00 0.00 0.00 50 1005.0
20260506164555 75 0 0.9 8.7 0.00 0.00 0.00 51 1005.2
20260506163109 74 0 0.0 3.5 0.00 0.00 0.00 52 1005.2
20260506161600 74 163 0.0 5.2 0.00 0.00 0.00 51 1005.3
20260506160054 74 0 0.0 5.2 0.00 0.00 0.00 50 1005.5
20260506154600 75 161 0.0 4.3 0.00 0.00 0.00 51 1005.8
20260506153052 74 175 0.0 4.3 0.00 0.00 0.00 51 1005.8
20260506151555 74 173 0.9 7.8 0.00 0.00 0.00 51 1005.9
20260506150053 75 198 3.5 7.8 0.00 0.00 0.00 50 1006.1
20260506144559 75 171 3.5 8.7 0.00 0.00 0.00 48 1006.1
20260506143053 75 0 4.3 10.4 0.00 0.00 0.00 49 1006.1
20260506141556 74 166 3.5 10.4 0.00 0.00 0.00 49 1006.4
20260506134557 76 0 3.5 11.3 0.00 0.00 0.00 47 1006.5
20260506133056 77 191 2.6 10.4 0.00 0.00 0.00 46 1006.4
20260506131558 76 254 1.7 11.3 0.00 0.00 0.00 48 1006.6
20260506130054 75 172 0.9 10.4 0.00 0.00 0.00 48 1006.8
20260506124558 74 167 3.5 11.3 0.00 0.00 0.00 49 1007.1
20260506123054 74 179 5.2 14.8 0.00 0.00 0.00 48 1007.1
20260506121600 74 169 2.6 12.2 0.00 0.00 0.00 52 1007.0
20260506120110 74 100 1.7 10.4 0.00 0.00 0.00 51 1007.0
20260506114610 73 145 3.5 10.4 0.00 0.00 0.00 52 1007.2
20260506113054 72 237 4.3 13.9 0.00 0.00 0.00 54 1007.0
20260506111555 72 176 1.7 12.2 0.00 0.00 0.00 54 1007.0
20260506110054 71 180 4.3 14.8 0.00 0.00 0.00 57 1007.1
20260506104555 71 178 6.1 13.9 0.00 0.00 0.00 56 1007.3
20260506103052 70 0 3.5 10.4 0.00 0.00 0.00 57 1007.1
20260506101557 71 189 3.5 11.3 0.00 0.00 0.00 57 1007.4
20260506100057 70 173 2.6 11.3 0.00 0.00 0.00 58 1007.3
20260506094557 69 302 3.5 14.8 0.00 0.00 0.00 61 1007.3
20260506093108 68 180 4.3 15.6 0.00 0.00 0.00 62 1007.4
20260506091555 68 169 6.1 14.8 0.00 0.00 0.00 61 1007.3
20260506090103 68 172 1.7 10.4 0.00 0.00 0.00 63 1007.1
20260506084556 68 178 5.2 13.9 0.00 0.00 0.00 64 1007.0
20260506083054 67 80 3.5 13.9 0.00 0.00 0.00 65 1006.8
20260506081553 66 174 1.7 13.9 0.00 0.00 0.00 67 1007.0
20260506080107 65 178 2.6 14.8 0.00 0.00 0.00 68 1006.8
20260506073111 64 190 4.3 13.9 0.00 0.00 0.00 68 1007.0
20260506071557 64 169 3.5 13.0 0.00 0.00 0.00 69 1006.8
20260506061603 61 176 2.6 14.8 0.00 0.00 0.00 71 1006.5
20260506044611 57 0 0.0 0.9 0.00 0.00 0.00 77 1006.0
20260506043056 56 0 0.0 0.0 0.00 0.00 0.00 78 1006.0
20260506041608 54 0 0.0 0.0 0.00 0.00 0.00 81 1005.9
20260506034558 52 0 0.0 0.0 0.00 0.00 0.00 82 1005.8
20260506033055 52 0 0.0 0.0 0.00 0.00 0.00 80 1005.7
20260506031600 54 0 0.0 0.0 0.00 0.00 0.00 77 1005.8
20260506030055 55 0 0.0 0.0 0.00 0.00 0.00 75 1005.8
20260506024608 56 0 0.0 0.0 0.00 0.00 0.00 74 1005.9
20260506023056 56 0 0.0 0.0 0.00 0.00 0.00 73 1006.0
20260506021554 57 0 0.0 0.0 0.00 0.00 0.00 71 1005.9
20260506020121 57 0 0.0 0.0 0.00 0.00 0.00 70 1005.8
20260506014556 57 0 0.0 0.0 0.00 0.00 0.00 70 1005.9
20260506013057 57 0 0.0 0.0 0.00 0.00 0.00 71 1005.9
20260506011553 57 0 0.0 0.0 0.00 0.00 0.00 70 1005.8
20260506010054 58 0 0.0 0.0 0.00 0.00 0.00 68 1005.8
20260506004552 58 0 0.0 0.0 0.00 0.00 0.00 67 1005.8
20260506003058 59 0 0.0 0.0 0.00 0.00 0.00 66 1005.5
20260506001607 59 0 0.0 0.0 0.00 0.00 0.00 64 1005.8
20260506000123 60 0 0.0 0.9 0.00 0.00 0.00 63 1005.9
20260505234610 60 0 0.0 0.0 0.00 0.00 0.00 64 1005.9
20260505233055 59 0 0.0 0.0 0.00 0.00 0.00 64 1006.0
20260505231559 60 0 0.0 0.0 0.00 0.00 0.00 63 1006.2
20260505230100 61 0 0.0 0.0 0.00 0.00 0.00 61 1006.2
20260505224556 62 0 0.0 0.0 0.00 0.00 0.00 61 1006.2
20260505223104 63 0 0.0 0.0 0.00 0.00 0.00 58 1006.2
20260505221558 63 0 0.0 0.0 0.00 0.00 0.00 57 1006.2
20260505220106 64 0 0.0 0.0 0.00 0.00 0.00 56 1006.2
20260505214604 65 0 0.0 0.0 0.00 0.00 0.00 54 1006.4
20260505213056 66 0 0.0 0.0 0.00 0.00 0.00 52 1006.2
20260505211631 67 0 0.0 0.9 0.00 0.00 0.00 51 1006.4
20260505210053 67 0 0.0 5.2 0.00 0.00 0.00 51 1006.5
20260505204603 67 0 0.0 0.9 0.00 0.00 0.00 53 1006.6
20260505203055 67 0 0.0 0.9 0.00 0.00 0.00 54 1006.6
20260505201555 67 0 0.0 0.0 0.00 0.00 0.00 53 1006.6
20260505200052 68 0 0.0 0.0 0.00 0.00 0.00 52 1006.4
20260505194553 69 0 0.0 0.0 0.00 0.00 0.00 52 1006.4
20260505193053 69 0 0.0 0.0 0.00 0.00 0.00 51 1006.2
20260505191600 70 0 0.0 0.0 0.00 0.00 0.00 49 1006.4
20260505190058 71 0 0.0 0.0 0.00 0.00 0.00 47 1006.4